SL-12 DEB, 29323

Orbit data source: Space-Track

SL-12 DEB, 29323 is space debris in HEO originally from a launch on Wed, 31 May 1989 UTC launched from the Tyuratam Missile And Space Complex (TTMTR). Debris objects in space refer to the collection of defunct objects orbiting the Earth. Examples of debris include non-operational satellites, rocket bodies, and fragments generated from explosions, collisions, or faulty payload assembly.

Loading next visibility...
Identifier
29323, 1989-039AE
Orbit
HEO
Country
Flag of CISCIS
Related business
Manufacturer
Unknown
Mission
Spacecraft
Bus & Motor
Unknown
Mass
Unknown
Launch date (UTC)
1989-05-31 (37 years ago)
Launch vehicle
Unknown
Launch site
Tyuratam Missile And Space Complex (TTMTR)
Object type
Payload
Rocket body
Debris
Shape & HBR
Unknown shape, 0.1 m
Radar Cross Section
Small (<0.1 m²)

Expand to show TLE details & history
Last TLE update: 2 days ago

TLE from 2 days ago
0 SL-12 DEB
1 29323U 89039AE  25348.01265394  .00005467  00000-0  63528-2 0  9998
2 29323  64.9299 312.3167 5073111  53.2861 343.4312  5.30832512 93120
Epoch: 2025-12-14T00:18Z
TLE epoch observation values (Epoch: 2025-12-14T00:18:13.300Z)
Latitude
0.00004°
Longitude
-135.18097°
Altitude
1,530.103 km
Speed
8.492 km/s
True Right ascension
20h 49m 13s
True Declination
0° 00' 00"
Sunlit
Object was in daylight at epoch
Visualization orbit readout
Latitude
Unknown
Longitude
Unknown
Altitude
Unknown
Speed
Unknown
Apparent Right ascension
Unknown
Apparent Declination
Unknown
Sunlit
N/A
Visualization observer readout
Local Sidereal Time
23:18:49
Azimuth
Unknown
Elevation
Unknown
Doppler factor
Unknown
Orbital elements
Apogee altitude
14,543.591 km
Perigee altitude
460.467 km
Semi-major axis
13,880.166 km
Eccentricity
0.50731
Inclination
64.9299°
RAAN
312.3167°
Arg. of periapsis
53.2861°
True anomaly
306.80294°
Mean anomaly
343.4312°
Eccentric anomaly
328.04942°
Mean motion
1.32725 °/min
Orbital period
271.24 mins
BSTAR
0.0063528
Loading maneuver chart data...
Computing Atmospheric mass density...
Loading historical data...
Loading historical data...
Loading historical data...
Loading historical data...
Loading historical data...
Loading historical data...
Loading historical data...

Documentation

Showing up to 5 results
|